[[{"header":{"parameterUnit":"m.s-1","parameterCategory":1,"la1":30.2991,"la2":30.254,"lo1":-89.0895,"lo2":-89.0444,"dy":0.0017,"dx":0.0017,"nx":28,"ny":28,"refTime":"2024-04-09T03:00:00:Z","depth":0,"parameterNumber":2,"parameterNumberName":"U-component_of_WINDS"},"data":[0,0,0,0,0,0,0,0,0,0,0,0,0,0,0,0,0,0,0,0,0,0,0,0,0,0,0,0,0,0,0,0,0,0,0,0,0,0,0,0,0,0,0,0,0,0,0,0,0,0,0,0,0,0,0,0,0,0,-7.1205,-7.1205,0,-7.1289,-7.129,-7.1291,-7.1243,-7.1241,-7.1239,-7.1236,-7.1319,-7.1323,-7.1328,0,0,0,0,0,0,0,0,0,0,0,0,0,-7.0998,-7.1002,-7.1204,-7.1206,-7.1207,-7.1289,-7.129,-7.1291,-7.1244,-7.1241,-7.1238,-7.1235,-7.1318,-7.1323,-7.1328,0,0,0,0,0,0,0,0,0,0,0,0,0,-7.1086,-7.1003,-7.1204,-7.1193,-7.1193,-7.1289,-7.129,-7.1292,-7.1244,-7.1241,-7.1237,-7.1234,-7.1316,-7.1322,-7.1329,-7.144,0,0,-7.1349,-7.1352,0,0,0,0,0,0,0,0,-7.1081,-7.1093,-7.1193,-7.1194,-7.1194,-7.1252,-7.1248,-7.1341,-7.1245,-7.1225,-7.1236,-7.1232,-7.1299,-7.1307,-7.1331,-7.1444,-7.1447,-7.135,-7.1354,-7.1356,-7.1358,0,0,0,0,0,0,0,-7.1075,-7.1089,-7.1238,-7.1195,-7.1195,-7.1182,-7.1191,-7.1265,-7.1281,-7.1226,-7.1223,-7.1234,-7.1299,-7.1324,-7.1332,-7.1448,-7.1349,-7.1355,-7.1359,-7.1362,-7.1656,-7.1659,0,0,0,0,0,0,-7.107,-7.1085,-7.1235,-7.124,-7.1128,-7.1189,-7.1199,-7.1237,-7.128,-7.1283,-7.1237,-7.1231,-7.1315,-7.1325,-7.1335,-7.1466,-7.1356,-7.1362,-7.1366,-7.1652,-7.1656,-7.1661,0,0,0,0,0,0,-7.1066,-7.1084,-7.1232,-7.1162,-7.118,-7.1196,-7.124,-7.124,-7.1266,-7.1288,-7.129,-7.126,-7.1312,-7.1326,-7.1414,-7.1468,-7.1365,-7.1371,-7.1647,-7.1653,-7.1659,-7.173,0,0,0,0,0,0,-7.106,-7.1083,-7.1126,-7.1163,-7.1184,-7.1311,-7.1243,-7.1245,-7.1278,-7.1272,-7.131,-7.1313,-7.1311,-7.1405,-7.1421,-7.1475,-7.1377,-7.1642,-7.165,-7.1657,-7.1722,-7.1737,-7.175,0,0,0,0,0,-7.1053,-7.1142,-7.1128,-7.1146,-7.1238,-7.1314,-7.1325,-7.1322,-7.1283,-7.1325,-7.1339,-7.1312,-7.1461,-7.1414,-7.1432,-7.1489,-7.1639,-7.1648,-7.1656,-7.1716,-7.1734,-7.1749,0,0,0,0,0,0,-7.1108,-7.1146,-7.1131,-7.1235,-7.1272,-7.1306,-7.1359,-7.1341,-7.1388,-7.138,-7.1373,-7.1382,-7.1474,-7.1491,-7.1438,-7.1598,-7.1543,-7.1556,-7.1583,-7.16,-7.1614,-7.1606,-7.1382,0,0,0,0,0,-7.1133,-7.1193,-7.1222,-7.1311,-7.133,-7.1342,-7.1375,-7.1369,-7.1406,-7.1421,-7.1441,-7.1477,-7.1532,-7.1568,-7.1619,-7.1726,-7.1733,-7.1775,-7.1788,-7.1799,-7.1809,-7.1865,-7.1883,-7.1689,-7.1689,-7.1689,0,0,-7.1183,-7.1212,-7.1249,-7.1323,-7.135,-7.1411,-7.1355,-7.1421,-7.1466,-7.143,-7.1515,-7.1532,-7.1571,-7.1669,-7.1713,-7.1686,-7.1865,-7.181,-7.1819,-7.1823,-7.1876,-7.1894,-7.1911,-7.1695,-7.1694,-7.1693,0,0,-7.1305,-7.1334,-7.141,-7.144,-7.1483,-7.1491,-7.1509,-7.1547,-7.1556,-7.1642,-7.1616,-7.1669,-7.1764,-7.1792,-7.1819,-7.1955,-7.1931,-7.1973,-7.2042,-7.2097,-7.2112,-7.2125,-7.2171,-7.2188,-7.1983,-7.1983,-7.1983,0,-7.1362,-7.1453,-7.1451,-7.152,-7.1552,-7.1526,-7.1602,-7.1631,-7.1688,-7.171,-7.168,-7.1798,-7.1823,-7.1927,-7.196,-7.1984,-7.2003,-7.1966,-7.211,-7.2124,-7.2136,-7.218,-7.2197,-7.1988,-7.1987,-7.1987,-7.1986,0,-7.152,-7.1584,-7.164,-7.1697,-7.1736,-7.1809,-7.1816,-7.1856,-7.1849,-7.1859,-7.1946,-7.1975,-7.2032,-7.2057,-7.2049,-7.2159,-7.2141,-7.2111,-7.2055,-7.2159,-7.22,-7.2217,-7.1994,-7.1993,-7.1991,-7.199,0,0,-7.1675,-7.1732,-7.1753,-7.1778,-7.1825,-7.1874,-7.1945,-7.2002,-7.2035,-7.2077,-7.2134,-7.2216,-7.2189,-7.222,-7.2216,-7.2265,-7.2367,-7.2228,-7.2229,-7.225,-7.2488,-7.2507,-7.2526,-7.2354,-7.2357,-7.236,-7.2483,0,-7.1798,-7.1922,-7.1924,-7.2038,-7.2096,-7.2073,-7.2134,-7.2169,-7.2182,-7.2232,-7.2246,-7.2303,-7.2264,-7.2282,-7.233,-7.2345,-7.2414,-7.2336,-7.2404,-7.2407,-7.2391,-7.2548,-7.2568,-7.2683,-7.2499,-7.2502,-7.2504,0,-7.1956,-7.2004,-7.2124,-7.2163,-7.2187,-7.2243,-7.2295,-7.2344,-7.2383,-7.2389,-7.2425,-7.2413,-7.2484,-7.243,-7.2527,-7.2474,-7.2502,-7.2514,-7.2519,-7.2521,-7.2459,-7.2551,-7.272,-7.2736,-7.2529,-7.2527,-7.2526,0,-7.2054,-7.2149,-7.2232,-7.2255,-7.2303,-7.2342,-7.2364,-7.24,-7.2434,-7.248,-7.2501,-7.2555,-7.2583,-7.2624,-7.2628,-7.2588,-7.2724,-7.267,-7.2729,-7.2728,-7.2754,-7.2752,-7.2927,-7.278,-7.278,-7.2779,-7.2779,0,-7.2188,-7.2262,-7.2276,-7.2327,-7.2409,-7.2411,-7.2491,-7.2509,-7.2542,-7.2595,-7.258,-7.263,-7.2633,-7.2684,-7.2688,-7.2766,-7.278,-7.2784,-7.2783,-7.2783,-7.2782,-7.2799,-7.2789,-7.2784,-7.2783,-7.2782,-7.2781,0,-7.2308,-7.2322,-7.2411,-7.245,-7.2462,-7.252,-7.2552,-7.2601,-7.2613,-7.2681,-7.2697,-7.2715,-7.2775,-7.2784,-7.2853,-7.2856,-7.2948,-7.2941,-7.2935,-7.2933,-7.2989,-7.2982,-7.3177,-7.3201,-7.3043,-7.3044,-7.3045,0,-7.2391,-7.2447,-7.2493,-7.2528,-7.2552,-7.2609,-7.2645,-7.2649,-7.2686,-7.2736,-7.2778,-7.2836,-7.2883,-7.2979,-7.2998,-7.3051,-7.3042,-7.3107,-7.305,-7.3048,-7.3039,-7.3034,-7.3039,-7.3117,-7.3118,-7.312,-7.3121,0,-7.2536,-7.254,-7.2592,-7.2647,-7.2689,-7.2732,-7.2773,-7.2802,-7.2812,-7.2854,-7.2916,-7.2952,-7.3024,-7.3082,-7.3135,-7.3156,-7.3139,-7.314,-7.3155,-7.3154,-7.3146,-7.3148,-7.2961,-7.3134,-7.3133,-7.3132,-7.3131,-7.3131,-7.2637,-7.2685,-7.2725,-7.2783,-7.2815,-7.2854,-7.2901,-7.292,-7.2972,-7.3031,-7.3031,-7.3098,-7.3136,-7.3206,-7.3231,-7.3282,-7.3261,-7.3284,-7.3289,-7.3294,-7.3298,-7.3142,-7.3293,-7.3292,-7.3292,-7.3292,-7.3291,0,-7.2777,-7.2803,-7.2857,-7.2914,-7.296,-7.2945,-7.2989,-7.3027,-7.3087,-7.3125,-7.3172,-7.3242,-7.3298,-7.3323,-7.3378,-7.3414,-7.3408,-7.3428,-7.3423,-7.3428,-7.3316,-7.3295,-7.3432,-7.3432,-7.3432,-7.3432,-7.3432,-7.3432,-7.2856,-7.2936,-7.2945,-7.3041,-7.3066,-7.3132,-7.3158,-7.3194,-7.3224,-7.3303,-7.335,-7.3367,-7.3399,-7.3457,-7.3507,-7.3513,-7.3532,-7.3555,-7.3557,-7.345,-7.3436,-7.3422,-7.3402,-7.356,-7.356,-7.3664,-7.3665,-7.3666]},{"header":{"parameterUnit":"m.s-1","parameterCategory":1,"la1":30.2991,"la2":30.254,"lo1":-89.0895,"lo2":-89.0444,"dy":0.0017,"dx":0.0017,"nx":28,"ny":28,"refTime":"2024-04-09T03:00:00:Z","depth":0,"parameterNumber":3,"parameterNumberName":"V-component_of_WINDS"},"data":[0,0,0,0,0,0,0,0,0,0,0,0,0,0,0,0,0,0,0,0,0,0,0,0,0,0,0,0,0,0,0,0,0,0,0,0,0,0,0,0,0,0,0,0,0,0,0,0,0,0,0,0,0,0,0,0,0,0,3.0111,3.0112,0,3.0184,3.0185,3.0186,3.0252,3.0252,3.0253,3.0254,3.0326,3.0327,3.0328,0,0,0,0,0,0,0,0,0,0,0,0,0,3.0026,3.0027,3.0111,3.0112,3.0113,3.0184,3.0185,3.0186,3.0251,3.0252,3.0253,3.0254,3.0326,3.0327,3.0329,0,0,0,0,0,0,0,0,0,0,0,0,0,3.0077,3.0027,3.0111,3.0154,3.0159,3.0184,3.0185,3.0186,3.0251,3.0252,3.0254,3.0255,3.0325,3.0327,3.0329,3.0316,0,0,3.0334,3.0335,0,0,0,0,0,0,0,0,3.0074,3.008,3.0147,3.0151,3.0156,3.021,3.0182,3.023,3.0251,3.0216,3.0254,3.0255,3.0286,3.0291,3.0302,3.032,3.0323,3.0334,3.0335,3.0336,3.0337,0,0,0,0,0,0,0,3.007,3.0077,3.014,3.0148,3.0153,3.0169,3.0178,3.0191,3.0243,3.0219,3.0224,3.0232,3.0289,3.0301,3.0305,3.0324,3.0334,3.0336,3.0337,3.0338,3.0336,3.0335,0,0,0,0,0,0,3.0061,3.0074,3.0137,3.0142,3.0117,3.017,3.0179,3.0192,3.0244,3.0253,3.0231,3.0235,3.0297,3.0302,3.0307,3.0298,3.0336,3.0338,3.0339,3.0337,3.0336,3.0335,0,0,0,0,0,0,3.0058,3.0066,3.0135,3.0109,3.0119,3.017,3.0183,3.0192,3.0204,3.0253,3.0262,3.0233,3.0298,3.0305,3.0314,3.0302,3.0339,3.034,3.0339,3.0337,3.0335,3.0278,0,0,0,0,0,0,3.0056,3.0064,3.0061,3.0109,3.0121,3.014,3.0182,3.0193,3.0207,3.0213,3.0257,3.0266,3.03,3.0311,3.0316,3.0305,3.0342,3.034,3.0338,3.0336,3.0281,3.0275,3.0269,0,0,0,0,0,3.0052,3.004,3.006,3.0067,3.0117,3.014,3.0146,3.0186,3.0206,3.0203,3.0234,3.0264,3.0302,3.0312,3.0318,3.0306,3.0341,3.0339,3.0336,3.0284,3.0276,3.0269,0,0,0,0,0,0,2.9988,3.0048,3.007,3.0073,3.0101,3.0151,3.0148,3.0176,3.0198,3.0203,3.025,3.026,3.0264,3.0286,3.0296,3.0298,3.0326,3.0324,3.0284,3.0277,3.0271,3.0266,3.0343,0,0,0,0,0,2.9974,2.9989,3.0039,3.0037,3.005,3.0096,3.0108,3.0136,3.0167,3.0179,3.0211,3.0238,3.0257,3.0267,3.0287,3.0284,3.0296,3.028,3.0273,3.0268,3.0267,3.0269,3.0263,3.0327,3.0327,3.0327,0,0,2.9946,2.998,2.9986,3.0025,3.005,3.0064,3.0106,3.0118,3.0129,3.018,3.0192,3.0216,3.025,3.0254,3.0257,3.0272,3.0251,3.0265,3.026,3.0262,3.0266,3.026,3.0254,3.0325,3.0325,3.0326,0,0,2.9902,2.9929,2.9931,2.9956,2.9993,3.0024,3.0024,3.007,3.0089,3.0102,3.0141,3.0154,3.0184,3.0207,3.0223,3.0188,3.0218,3.0193,3.0161,3.0163,3.0158,3.0153,3.0143,3.0138,3.0191,3.0191,3.0191,0,2.9862,2.9885,2.9928,2.9939,2.9956,3.0004,3.0007,3.0028,3.0069,3.008,3.0096,3.0136,3.0162,3.0173,3.0165,3.0175,3.0178,3.0189,3.0155,3.0151,3.0148,3.0138,3.0134,3.0188,3.0188,3.0189,3.0189,0,2.9835,2.985,2.9847,2.9888,2.9904,2.991,2.9955,2.9965,2.9993,3.0022,3.0034,3.0067,3.0095,3.0099,3.0125,3.0114,3.0123,3.0146,3.0175,3.0138,3.013,3.0127,3.0184,3.0185,3.0186,3.0186,0,0,2.9753,2.9818,2.9817,2.9837,2.9882,2.9895,2.9903,2.9932,2.9941,2.9967,2.9977,3.0001,3.0024,3.0042,3.007,3.0071,3.0044,3.0095,3.0097,3.0086,3.0036,3.002,3.0015,3.0063,3.0063,3.0062,3.0034,0,2.9718,2.9738,2.9778,2.9785,2.9801,2.9847,2.9855,2.9883,2.991,2.9927,2.9956,2.9974,3.0001,3.0013,3.0016,3.0047,3.0035,3.0049,3.0073,3.0073,3.0065,3.0011,2.9993,2.9965,3.0031,3.0031,3.003,0,2.968,2.9706,2.9715,2.9762,2.9769,2.9776,2.9806,2.9821,2.9854,2.9874,2.9894,2.9926,2.9938,2.9963,2.9981,2.9989,3.0001,3.0018,3.0018,3.0023,3.0051,3.0016,2.9957,2.9953,3.0025,3.0026,3.0026,0,2.9623,2.9659,2.967,2.9685,2.9739,2.9742,2.9764,2.9799,2.9814,2.984,2.985,2.9876,2.989,2.991,2.9948,2.9963,2.9961,2.999,2.9979,2.9978,2.9978,2.9978,2.9921,2.9982,2.9982,2.9982,2.9982,0,2.9581,2.9585,2.9645,2.9652,2.9659,2.9704,2.9708,2.9735,2.9765,2.9778,2.9818,2.9829,2.9878,2.9894,2.9924,2.9935,2.994,2.9957,2.9965,2.9955,2.9953,2.9964,2.9968,2.9981,2.9981,2.9981,2.9982,0,2.9518,2.9558,2.9574,2.9623,2.9636,2.9638,2.9681,2.9689,2.9718,2.9734,2.974,2.9786,2.9808,2.9848,2.988,2.99,2.9905,2.9918,2.9894,2.99,2.9888,2.9889,2.9838,2.9835,2.9895,2.9894,2.9894,0,2.949,2.9494,2.9545,2.9557,2.9578,2.9596,2.9612,2.9657,2.9671,2.971,2.9714,2.9739,2.9762,2.9794,2.983,2.9855,2.987,2.9851,2.9874,2.9864,2.9872,2.9872,2.9874,2.9846,2.9845,2.9844,2.9843,0,2.9436,2.9456,2.9478,2.9507,2.9525,2.955,2.9577,2.9584,2.9634,2.9649,2.9672,2.969,2.9724,2.9748,2.9779,2.9801,2.9831,2.9836,2.9835,2.9825,2.9812,2.9821,2.9882,2.9837,2.9838,2.9838,2.9838,2.9839,2.9391,2.9398,2.9435,2.9459,2.9484,2.9508,2.9519,2.955,2.9571,2.9603,2.9627,2.9649,2.9683,2.9727,2.9748,2.9765,2.9779,2.9777,2.9777,2.9777,2.9773,2.9808,2.977,2.9771,2.9771,2.9771,2.9771,0,2.9341,2.9368,2.9389,2.9426,2.9444,2.9471,2.9502,2.9516,2.9535,2.9564,2.9586,2.9613,2.9637,2.9675,2.9703,2.9709,2.9724,2.9715,2.9716,2.9721,2.9758,2.9757,2.9703,2.9703,2.9703,2.9703,2.9703,2.9703,2.9318,2.9332,2.9356,2.9383,2.9409,2.9432,2.9448,2.947,2.9494,2.9523,2.9544,2.9569,2.9602,2.9632,2.9656,2.9666,2.9675,2.9662,2.9677,2.9712,2.9718,2.9724,2.9724,2.9664,2.9664,2.9639,2.9639,2.9639]}]]